Fort Stockton, TX

8:49 AM CST on February 06, 2016 (GMT -0600)
Fort Stockton-Pecos County

Weather History for KFST - August, 2012

Change the Weather History Date:

Monday, August 13, 2012

  Actual Average Record
Temperature  
Mean Temperature 84 °F -  
Max Temperature 96 °F 92 °F 102 °F (2015)
Min Temperature 75 °F 69 °F 64 °F (2004)
Cooling Degree Days 19    
Growing Degree Days 34 (Base 50)    
Moisture  
Dew Point 55 °F    
Average Humidity 37    
Maximum Humidity 57    
Minimum Humidity 26    
Precipitation  
Precipitation 0.00 in - - ()
Sea Level Pressure  
Sea Level Pressure 29.95 in    
Wind  
Wind Speed 12 mph (ESE)    
Max Wind Speed 18 mph    
Max Gust Speed 28 mph    
Visibility 10 miles    
Events Thunderstorm    
Averages and records for this station are not official NWS values.
T = Trace of Precipitation, MM = Missing Value Source: NWS Daily Summary

Daily Weather History Graph

Daily Weather History Graph

Search for Another Location

Airport or City:

Trip Planner

Search our weather history database for the weather conditions in past years. The results will help you decide how hot, cold, wet, or windy it might be!

Date:

Astronomy

Aug. 13, 2012 Rise Set
Actual Time 7:16 AM CDT 8:35 PM CDT
Civil Twilight 6:51 AM CDT 9:00 PM CDT
Nautical Twilight 6:20 AM CDT 9:31 PM CDT
Astronomical Twilight 5:49 AM CDT 10:02 PM CDT
Moon 3:29 AM CDT (8/13) 5:41 PM CDT (8/13)
Length of Visible Light 14h 09m
Length of Day
13h 18m
Waning Crescent, 16% of the Moon is Illuminated
Aug 13
Waning Crescent
Aug 17
New
Aug 24
First Quarter
Aug 31
Full
Sep 8
Last Quarter

Hourly Weather History & Observations

Time (CDT) Temp. Heat Index Dew Point Humidity Pressure Visibility Wind Dir Wind Speed Gust Speed Precip Events Conditions
12:53 AM 84.9 °F - 52.0 °F 32% 29.87 in 10.0 mi SE 11.5 mph - N/A   Clear
1:53 AM 84.0 °F - 52.0 °F 33% 29.86 in 10.0 mi SSE 13.8 mph - N/A   Clear
2:51 AM 84.2 °F - 51.8 °F 33% 30.05 in 10.0 mi East 13.8 mph - N/A Thunderstorm Clear
2:53 AM 84.0 °F - 51.1 °F 32% 29.88 in 10.0 mi East 16.1 mph - N/A Thunderstorm Partly Cloudy
3:06 AM 82.4 °F - 51.8 °F 35% 30.06 in 10.0 mi ESE 13.8 mph 26.5 mph N/A   Partly Cloudy
3:53 AM 84.0 °F - 51.1 °F 32% 29.92 in 10.0 mi ESE 12.7 mph 26.5 mph N/A   Clear
4:53 AM 80.1 °F 80.0 °F 54.0 °F 40% 29.94 in 10.0 mi ESE 15.0 mph - 0.00 in   Partly Cloudy
5:53 AM 79.0 °F - 55.9 °F 45% 29.94 in 10.0 mi SE 18.4 mph 27.6 mph N/A   Clear
6:53 AM 78.1 °F - 57.0 °F 48% 29.96 in 10.0 mi SE 11.5 mph - N/A   Clear
7:53 AM 77.0 °F - 57.0 °F 50% 30.01 in 10.0 mi NE 6.9 mph - N/A   Mostly Cloudy
8:53 AM 75.0 °F - 59.0 °F 57% 30.04 in 10.0 mi NE 12.7 mph - N/A   Mostly Cloudy
9:53 AM 77.0 °F - 60.1 °F 56% 30.04 in 10.0 mi East 10.4 mph - N/A   Clear
10:38 AM 80.6 °F 81.1 °F 59.0 °F 48% 30.18 in 7.0 mi East 8.1 mph - N/A   Partly Cloudy
10:53 AM 81.0 °F 81.3 °F 59.0 °F 47% 30.02 in 10.0 mi East 8.1 mph - N/A   Clear
11:53 AM 84.0 °F 83.5 °F 57.9 °F 41% 30.01 in 10.0 mi East 5.8 mph - N/A   Clear
12:53 PM 87.1 °F 85.7 °F 55.9 °F 35% 29.98 in 10.0 mi SE 4.6 mph - N/A   Clear
1:53 PM 91.0 °F 88.7 °F 54.0 °F 28% 29.96 in 10.0 mi SE 10.4 mph - N/A   Clear
2:53 PM 93.0 °F 90.6 °F 53.1 °F 26% 29.93 in 10.0 mi East 13.8 mph 21.9 mph N/A   Clear
3:53 PM 93.0 °F 90.8 °F 54.0 °F 27% 29.91 in 10.0 mi East 12.7 mph - N/A   Clear
4:53 PM 93.0 °F 90.6 °F 53.1 °F 26% 29.90 in 10.0 mi ESE 16.1 mph 23.0 mph N/A   Clear
5:53 PM 91.9 °F 89.5 °F 54.0 °F 27% 29.88 in 10.0 mi ESE 15.0 mph 20.7 mph N/A   Clear
6:53 PM 93.0 °F 91.1 °F 55.0 °F 28% 29.87 in 10.0 mi ESE 15.0 mph - N/A   Clear
7:53 PM 91.0 °F 88.9 °F 55.0 °F 29% 29.87 in 10.0 mi SE 12.7 mph - N/A   Clear
8:53 PM 90.0 °F 87.9 °F 55.0 °F 30% 29.88 in 10.0 mi SE 10.4 mph - N/A   Clear
9:53 PM 88.0 °F 86.1 °F 55.0 °F 32% 29.90 in 10.0 mi ESE 13.8 mph - N/A   Clear
10:53 PM 87.1 °F 86.1 °F 57.9 °F 37% 29.92 in 10.0 mi SE 13.8 mph 20.7 mph N/A   Clear
11:53 PM 86.0 °F 85.0 °F 57.9 °F 38% 29.92 in 10.0 mi SSE 11.5 mph - N/A   Clear